,,,PA_Meas_PMT16A,,PR_Meas_QMR101_102,,RH_Meas_QMH101,,SR_Meas_QMS101,,TA_Meas_QMH101,,GenWind,,GenWind,
date,time,status,PA,status,PR,status,RH,status,SR,status,TA,status,DirAvg,status,SpdAvg,
2008-07-02, 00:00:04,VALID,1011.84,VALID,0,VALID,94.7271,VALID,0,VALID,23.4797,VALID,89,VALID,0.365625,
2008-07-02, 00:01:04,VALID,1011.86,VALID,0,VALID,94.6737,VALID,0,VALID,23.4797,VALID,89,VALID,0.301953,
2008-07-02, 00:02:04,VALID,1011.82,VALID,0,VALID,94.6661,VALID,0,VALID,23.4797,VALID,89,VALID,0.194531,
2008-07-02, 00:03:04,VALID,1011.82,VALID,0,VALID,94.6585,VALID,0,VALID,23.4797,VALID,89,VALID,0.323828,
2008-07-02, 00:04:04,VALID,1011.82,VALID,0,VALID,94.7042,VALID,0,VALID,23.5009,VALID,90,VALID,0.394922,
2008-07-02, 00:05:04,VALID,1011.82,VALID,0,VALID,94.7347,VALID,0,VALID,23.5186,VALID,90,VALID,0.348828,
2008-07-02, 00:06:04,VALID,1011.77,VALID,0,VALID,94.7729,VALID,0,VALID,23.5186,VALID,90,VALID,0.429688,
2008-07-02, 00:07:04,VALID,1011.78,VALID,0,VALID,94.75,VALID,0,VALID,23.5399,VALID,68,VALID,0.676562,
2008-07-02, 00:08:04,VALID,1011.77,VALID,0,VALID,94.6737,VALID,0,VALID,23.5399,VALID,52,VALID,0.535156,
2008-07-02, 00:09:04,VALID,1011.75,VALID,0,VALID,94.5822,VALID,0,VALID,23.5186,VALID,56,VALID,0.536328,
2008-07-02, 00:10:04,VALID,1011.73,VALID,0,VALID,94.5365,VALID,0,VALID,23.4797,VALID,66,VALID,0.498047,
2008-07-02, 00:11:04,VALID,1011.72,VALID,0,VALID,94.5365,VALID,0,VALID,23.4992,VALID,91,VALID,0.658203,
2008-07-02, 00:12:04,VALID,1011.71,VALID,0,VALID,94.5288,VALID,0,VALID,23.4602,VALID,91,VALID,0.287109,
2008-07-02, 00:13:04,VALID,1011.69,VALID,0,VALID,94.5593,VALID,0,VALID,23.4602,VALID,91,VALID,0.241406,
2008-07-02, 00:14:04,VALID,1011.69,VALID,0,VALID,94.5365,VALID,0.105969,VALID,23.4797,VALID,91,VALID,0.468359,
2008-07-02, 00:15:04,VALID,1011.66,VALID,0,VALID,94.5593,VALID,0,VALID,23.4584,VALID,88,VALID,0.310547,
2008-07-02, 00:16:04,VALID,1011.67,VALID,0,VALID,94.5365,VALID,0.105969,VALID,23.4779,VALID,67,VALID,0.258203,
2008-07-02, 00:17:04,VALID,1011.63,VALID,0,VALID,94.5212,VALID,0,VALID,23.4797,VALID,67,VALID,0.2,
2008-07-02, 00:18:04,VALID,1011.65,VALID,0,VALID,94.4907,VALID,0.105969,VALID,23.4602,VALID,71,VALID,0.328906,
2008-07-02, 00:19:04,VALID,1011.61,VALID,0,VALID,94.506,VALID,0.105969,VALID,23.4389,VALID,71,VALID,0.34375,
2008-07-02, 00:20:04,VALID,1011.62,VALID,0,VALID,94.5441,VALID,0.105969,VALID,23.4389,VALID,71,VALID,0.0628906,
2008-07-02, 00:21:04,VALID,1011.58,VALID,0,VALID,94.5822,VALID,0.105969,VALID,23.4389,VALID,71,VALID,0,
2008-07-02, 00:22:04,VALID,1011.59,VALID,0,VALID,94.628,VALID,0,VALID,23.4389,VALID,71,VALID,0.160547,
2008-07-02, 00:23:04,VALID,1011.55,VALID,0,VALID,94.6432,VALID,0.105969,VALID,23.4797,VALID,71,VALID,0.156641,
2008-07-02, 00:24:04,VALID,1011.54,VALID,0,VALID,94.6508,VALID,0.105969,VALID,23.4797,VALID,71,VALID,0.078125,
2008-07-02, 00:25:04,VALID,1011.53,VALID,0,VALID,94.6356,VALID,0.105969,VALID,23.4584,VALID,71,VALID,0.0078125,
2008-07-02, 00:26:04,VALID,1011.5,VALID,0,VALID,94.6508,VALID,0.105969,VALID,23.4797,VALID,71,VALID,0,
2008-07-02, 00:27:04,VALID,1011.51,VALID,0,VALID,94.6203,VALID,0.105969,VALID,23.4797,VALID,71,VALID,0,
2008-07-02, 00:28:04,VALID,1011.52,VALID,0,VALID,94.6508,VALID,0.105969,VALID,23.4584,VALID,71,VALID,0.144531,
2008-07-02, 00:29:04,VALID,1011.52,VALID,0,VALID,94.6585,VALID,0.105969,VALID,23.4584,VALID,71,VALID,0,
2008-07-02, 00:30:04,VALID,1011.5,VALID,0,VALID,94.6814,VALID,0.105969,VALID,23.4584,VALID,70,VALID,0.348828,
2008-07-02, 00:31:04,VALID,1011.48,VALID,0,VALID,94.6432,VALID,0.105969,VALID,23.4584,VALID,29,VALID,0.617578,
2008-07-02, 00:32:04,VALID,1011.45,VALID,0,VALID,94.5975,VALID,0.105969,VALID,23.4602,VALID,25,VALID,0.653906,
2008-07-02, 00:33:04,VALID,1011.46,VALID,0,VALID,94.5517,VALID,0.105969,VALID,23.4389,VALID,33,VALID,0.400781,
2008-07-02, 00:34:04,VALID,1011.44,VALID,0,VALID,94.5365,VALID,0.105969,VALID,23.4389,VALID,33,VALID,0.163672,
2008-07-02, 00:35:04,VALID,1011.44,VALID,0,VALID,94.5898,VALID,0.105969,VALID,23.4389,VALID,165,VALID,0.576563,
2008-07-02, 00:36:04,VALID,1011.41,VALID,0,VALID,94.6051,VALID,0.105969,VALID,23.4389,VALID,167,VALID,0.514844,
2008-07-02, 00:37:04,VALID,1011.42,VALID,0,VALID,94.628,VALID,0.105969,VALID,23.4389,VALID,128,VALID,0.442578,
2008-07-02, 00:38:04,VALID,1011.39,VALID,0,VALID,94.6051,VALID,0.105969,VALID,23.4389,VALID,68,VALID,0.657031,
2008-07-02, 00:39:04,VALID,1011.39,VALID,0,VALID,94.5746,VALID,0.105969,VALID,23.4389,VALID,47,VALID,0.568359,
2008-07-02, 00:40:04,VALID,1011.38,VALID,0,VALID,94.567,VALID,0.105969,VALID,23.4584,VALID,31,VALID,0.144531,
2008-07-02, 00:41:04,VALID,1011.35,VALID,0,VALID,94.5593,VALID,0.105969,VALID,23.4389,VALID,64,VALID,0.346484,
2008-07-02, 00:42:04,VALID,1011.33,VALID,0,VALID,94.628,VALID,0.105969,VALID,23.4992,VALID,161,VALID,0.806641,
2008-07-02, 00:43:04,VALID,1011.31,VALID,0,VALID,94.6432,VALID,0.105969,VALID,23.4584,VALID,117,VALID,0.456641,
2008-07-02, 00:44:04,VALID,1011.26,VALID,0,VALID,94.6737,VALID,0,VALID,23.4797,VALID,64,VALID,0.419531,
2008-07-02, 00:45:04,VALID,1011.25,VALID,0,VALID,94.7042,VALID,0.105969,VALID,23.4992,VALID,64,VALID,0.228516,
2008-07-02, 00:46:04,VALID,1011.26,VALID,0,VALID,94.689,VALID,0.105969,VALID,23.4974,VALID,64,VALID,0,
2008-07-02, 00:47:04,VALID,1011.24,VALID,0,VALID,94.6661,VALID,0.105969,VALID,23.5381,VALID,64,VALID,0.278516,
2008-07-02, 00:48:04,VALID,1011.24,VALID,0,VALID,94.6508,VALID,0,VALID,23.5381,VALID,64,VALID,0.246875,
2008-07-02, 00:49:04,VALID,1011.23,VALID,0,VALID,94.6432,VALID,0.105969,VALID,23.5576,VALID,64,VALID,0.0945313,
2008-07-02, 00:50:04,VALID,1011.23,VALID,0,VALID,94.6203,VALID,0.105969,VALID,23.5558,VALID,64,VALID,0.2125,
2008-07-02, 00:51:04,VALID,1011.21,VALID,0,VALID,94.506,VALID,0,VALID,23.5363,VALID,64,VALID,0.167187,
2008-07-02, 00:52:04,VALID,1011.21,VALID,0,VALID,94.4831,VALID,0.105969,VALID,23.5576,VALID,64,VALID,0.236719,
2008-07-02, 00:53:04,VALID,1011.2,VALID,0,VALID,94.4526,VALID,0.105969,VALID,23.5363,VALID,64,VALID,0.157031,
2008-07-02, 00:54:04,VALID,1011.16,VALID,0,VALID,94.3534,VALID,0.105969,VALID,23.5363,VALID,64,VALID,0.289063,
2008-07-02, 00:55:04,VALID,1011.13,VALID,0,VALID,94.2924,VALID,0.105969,VALID,23.5363,VALID,64,VALID,0.15625,
2008-07-02, 00:56:04,VALID,1011.14,VALID,0,VALID,94.2772,VALID,0.105969,VALID,23.5169,VALID,64,VALID,0.00664063,
2008-07-02, 00:57:04,VALID,1011.12,VALID,0,VALID,94.3153,VALID,0.105969,VALID,23.5169,VALID,64,VALID,0.130469,
2008-07-02, 00:58:04,VALID,1011.1,VALID,0,VALID,94.3001,VALID,0,VALID,23.4974,VALID,64,VALID,0.0289063,
2008-07-02, 00:59:04,VALID,1011.07,VALID,0,VALID,94.3306,VALID,0,VALID,23.4992,VALID,64,VALID,0,
2008-07-02, 01:00:04,VALID,1011.09,VALID,0,VALID,94.3687,VALID,0,VALID,23.5204,VALID,64,VALID,0,
2008-07-02, 01:01:04,VALID,1011.06,VALID,0,VALID,94.4602,VALID,0,VALID,23.5204,VALID,64,VALID,0,
2008-07-02, 01:02:04,VALID,1011.04,VALID,0,VALID,94.4526,VALID,0,VALID,23.5009,VALID,64,VALID,0,
2008-07-02, 01:03:04,VALID,1011.05,VALID,0,VALID,94.4755,VALID,0,VALID,23.4797,VALID,64,VALID,0.180078,
2008-07-02, 01:04:04,VALID,1011.04,VALID,0,VALID,94.4983,VALID,0,VALID,23.5009,VALID,64,VALID,0.177734,
2008-07-02, 01:05:04,VALID,1011.04,VALID,0,VALID,94.4526,VALID,0,VALID,23.4407,VALID,64,VALID,0.316016,
2008-07-02, 01:06:04,VALID,1011.03,VALID,0,VALID,94.4526,VALID,0,VALID,23.4425,VALID,64,VALID,0.305469,
2008-07-02, 01:07:04,VALID,1011.01,VALID,0,VALID,94.4831,VALID,0,VALID,23.4425,VALID,64,VALID,0.264062,
2008-07-02, 01:08:04,VALID,1011,VALID,0,VALID,94.5365,VALID,0,VALID,23.4017,VALID,64,VALID,0.260938,
2008-07-02, 01:09:04,VALID,1011.01,VALID,0,VALID,94.5517,VALID,0,VALID,23.3823,VALID,64,VALID,0.110937,
2008-07-02, 01:10:04,VALID,1010.99,VALID,0,VALID,94.6127,VALID,0,VALID,23.3823,VALID,64,VALID,0,
2008-07-02, 01:11:04,VALID,1011.01,VALID,0,VALID,94.6737,VALID,0,VALID,23.3628,VALID,64,VALID,0,
2008-07-02, 01:12:04,VALID,1011.01,VALID,0,VALID,94.689,VALID,0,VALID,23.3628,VALID,64,VALID,0,
2008-07-02, 01:13:04,VALID,1011.03,VALID,0,VALID,94.7119,VALID,0,VALID,23.3628,VALID,64,VALID,0.265234,
2008-07-02, 01:14:04,VALID,1011.04,VALID,0,VALID,94.75,VALID,0.105969,VALID,23.361,VALID,64,VALID,0.310156,
2008-07-02, 01:15:04,VALID,1011.06,VALID,0,VALID,94.7576,VALID,0.105969,VALID,23.361,VALID,64,VALID,0.250781,
2008-07-02, 01:16:04,VALID,1011.1,VALID,0,VALID,94.7652,VALID,0.105969,VALID,23.361,VALID,64,VALID,0.290234,
2008-07-02, 01:17:04,VALID,1011.08,VALID,0,VALID,94.7652,VALID,0.105969,VALID,23.3415,VALID,64,VALID,0.45625,
2008-07-02, 01:18:04,VALID,1011.11,VALID,0,VALID,94.7957,VALID,0.105969,VALID,23.3823,VALID,64,VALID,0.349609,
2008-07-02, 01:19:04,VALID,1011.09,VALID,0,VALID,94.8644,VALID,0.105969,VALID,23.3805,VALID,64,VALID,0.376563,
2008-07-02, 01:20:04,VALID,1011.09,VALID,0,VALID,94.872,VALID,0.105969,VALID,23.361,VALID,64,VALID,0.338672,
2008-07-02, 01:21:04,VALID,1011.1,VALID,0,VALID,94.8491,VALID,0.105969,VALID,23.361,VALID,64,VALID,0.316406,
2008-07-02, 01:22:04,VALID,1011.07,VALID,0,VALID,94.8262,VALID,0.105969,VALID,23.361,VALID,57,VALID,0.385547,
2008-07-02, 01:23:04,VALID,1011.04,VALID,0,VALID,94.811,VALID,0.105969,VALID,23.361,VALID,57,VALID,0.218359,
2008-07-02, 01:24:04,VALID,1011.02,VALID,0,VALID,94.7881,VALID,0.105969,VALID,23.3415,VALID,57,VALID,0,
2008-07-02, 01:25:04,VALID,1011.01,VALID,0,VALID,94.8186,VALID,0.105969,VALID,23.3415,VALID,57,VALID,0.00507812,
2008-07-02, 01:26:04,VALID,1010.99,VALID,0,VALID,94.8186,VALID,0.105969,VALID,23.322,VALID,57,VALID,0.103906,
2008-07-02, 01:27:04,VALID,1010.95,VALID,0,VALID,94.811,VALID,0.105969,VALID,23.322,VALID,57,VALID,0.162109,
2008-07-02, 01:28:04,VALID,1010.97,VALID,0,VALID,94.8339,VALID,0.105969,VALID,23.3008,VALID,57,VALID,0.234375,
2008-07-02, 01:29:04,VALID,1010.97,VALID,0,VALID,94.872,VALID,0,VALID,23.3238,VALID,57,VALID,0.160938,
2008-07-02, 01:30:04,VALID,1010.96,VALID,0,VALID,94.8339,VALID,0,VALID,23.3043,VALID,57,VALID,0.268359,
2008-07-02, 01:31:04,VALID,1010.96,VALID,0,VALID,94.8491,VALID,0,VALID,23.2848,VALID,57,VALID,0.256641,
2008-07-02, 01:32:04,VALID,1010.96,VALID,0,VALID,94.8568,VALID,0,VALID,23.2848,VALID,57,VALID,0.241406,
2008-07-02, 01:33:04,VALID,1010.94,VALID,0,VALID,94.872,VALID,0,VALID,23.2848,VALID,57,VALID,0.328516,
2008-07-02, 01:34:04,VALID,1010.95,VALID,0,VALID,94.872,VALID,0,VALID,23.2654,VALID,57,VALID,0.371094,
2008-07-02, 01:35:04,VALID,1010.95,VALID,0,VALID,94.9025,VALID,0,VALID,23.2654,VALID,58,VALID,0.13125,
2008-07-02, 01:36:04,VALID,1010.96,VALID,0,VALID,94.9101,VALID,0,VALID,23.2654,VALID,58,VALID,0.219531,
2008-07-02, 01:37:04,VALID,1010.94,VALID,0,VALID,94.9025,VALID,0,VALID,23.2264,VALID,31,VALID,0.426562,
2008-07-02, 01:38:04,VALID,1010.95,VALID,0,VALID,94.9254,VALID,0,VALID,23.2264,VALID,28,VALID,0.215625,
2008-07-02, 01:39:04,VALID,1010.97,VALID,0,VALID,94.9178,VALID,0,VALID,23.2264,VALID,30,VALID,0.394141,
2008-07-02, 01:40:04,VALID,1010.93,VALID,0,VALID,94.9406,VALID,0,VALID,23.2476,VALID,32,VALID,0.2125,
2008-07-02, 01:41:04,VALID,1010.96,VALID,0,VALID,94.9635,VALID,0,VALID,23.2476,VALID,67,VALID,0.447656,
2008-07-02, 01:42:04,VALID,1010.96,VALID,0,VALID,94.9864,VALID,0,VALID,23.2069,VALID,74,VALID,0.0183594,
2008-07-02, 01:43:04,VALID,1010.95,VALID,0,VALID,94.9864,VALID,0,VALID,23.2282,VALID,74,VALID,0.0734375,
2008-07-02, 01:44:04,VALID,1010.94,VALID,0,VALID,94.994,VALID,0,VALID,23.2069,VALID,74,VALID,0.0105469,
2008-07-02, 01:45:04,VALID,1010.9,VALID,0,VALID,95.0093,VALID,0,VALID,23.1874,VALID,74,VALID,0,
2008-07-02, 01:46:04,VALID,1010.91,VALID,0,VALID,95.0169,VALID,0,VALID,23.1874,VALID,74,VALID,0,
2008-07-02, 01:47:04,VALID,1010.91,VALID,0,VALID,95.0398,VALID,0,VALID,23.2087,VALID,74,VALID,0.00078125,
2008-07-02, 01:48:04,VALID,1010.92,VALID,0,VALID,95.055,VALID,0,VALID,23.1874,VALID,65,VALID,0.13125,
2008-07-02, 01:49:04,VALID,1010.92,VALID,0,VALID,95.0626,VALID,0,VALID,23.1892,VALID,66,VALID,0,
2008-07-02, 01:50:04,VALID,1010.91,VALID,0,VALID,95.0855,VALID,0,VALID,23.1892,VALID,66,VALID,0,
2008-07-02, 01:51:04,VALID,1010.89,VALID,0,VALID,95.0703,VALID,0,VALID,23.1679,VALID,66,VALID,0,
2008-07-02, 01:52:04,VALID,1010.9,VALID,0,VALID,95.1084,VALID,0,VALID,23.1679,VALID,66,VALID,0,
2008-07-02, 01:53:04,VALID,1010.89,VALID,0,VALID,95.1236,VALID,0,VALID,23.1679,VALID,66,VALID,0,
2008-07-02, 01:54:04,VALID,1010.87,VALID,0,VALID,95.1465,VALID,0,VALID,23.1679,VALID,66,VALID,0,
2008-07-02, 01:55:04,VALID,1010.89,VALID,0,VALID,95.1389,VALID,0,VALID,23.1679,VALID,66,VALID,0,
2008-07-02, 01:56:04,VALID,1010.9,VALID,0,VALID,95.1847,VALID,0,VALID,23.1679,VALID,66,VALID,0,
2008-07-02, 01:57:04,VALID,1010.88,VALID,0,VALID,95.1999,VALID,0,VALID,23.1679,VALID,66,VALID,0,
2008-07-02, 01:58:04,VALID,1010.84,VALID,0,VALID,95.177,VALID,0,VALID,23.1679,VALID,66,VALID,0,
2008-07-02, 01:59:04,VALID,1010.83,VALID,0,VALID,95.1847,VALID,0,VALID,23.1467,VALID,65,VALID,0.0210938,
2008-07-02, 02:00:04,VALID,1010.83,VALID,0,VALID,95.2228,VALID,0,VALID,23.1679,VALID,66,VALID,0,
2008-07-02, 02:01:04,VALID,1010.86,VALID,0,VALID,95.2457,VALID,0,VALID,23.1874,VALID,66,VALID,0,
2008-07-02, 02:02:04,VALID,1010.83,VALID,0,VALID,95.2152,VALID,0,VALID,23.1874,VALID,65,VALID,0.003125,
2008-07-02, 02:03:04,VALID,1010.81,VALID,0,VALID,95.2304,VALID,0,VALID,23.1874,VALID,65,VALID,0,
2008-07-02, 02:04:04,VALID,1010.82,VALID,0,VALID,95.2152,VALID,0,VALID,23.2087,VALID,66,VALID,0.003125,
2008-07-02, 02:05:04,VALID,1010.79,VALID,0,VALID,95.1847,VALID,0,VALID,23.1679,VALID,66,VALID,0.0921875,
2008-07-02, 02:06:04,VALID,1010.79,VALID,0,VALID,95.177,VALID,0,VALID,23.1679,VALID,66,VALID,0.149609,
2008-07-02, 02:07:04,VALID,1010.77,VALID,0,VALID,95.1618,VALID,0,VALID,23.1679,VALID,65,VALID,0.153516,
2008-07-02, 02:08:04,VALID,1010.79,VALID,0,VALID,95.1542,VALID,0,VALID,23.1485,VALID,66,VALID,0.00117188,
2008-07-02, 02:09:04,VALID,1010.79,VALID,0,VALID,95.1618,VALID,0,VALID,23.1485,VALID,66,VALID,0,
2008-07-02, 02:10:04,VALID,1010.74,VALID,0,VALID,95.1465,VALID,0,VALID,23.129,VALID,66,VALID,0,
2008-07-02, 02:11:04,VALID,1010.75,VALID,0,VALID,95.1465,VALID,0,VALID,23.129,VALID,66,VALID,0,
2008-07-02, 02:12:04,VALID,1010.73,VALID,0,VALID,95.1618,VALID,0,VALID,23.129,VALID,66,VALID,0,
2008-07-02, 02:13:04,VALID,1010.74,VALID,0,VALID,95.177,VALID,0,VALID,23.129,VALID,66,VALID,0,
2008-07-02, 02:14:04,VALID,1010.74,VALID,0,VALID,95.1847,VALID,0,VALID,23.1095,VALID,66,VALID,0,
2008-07-02, 02:15:04,VALID,1010.71,VALID,0,VALID,95.1999,VALID,0,VALID,23.129,VALID,66,VALID,0,
2008-07-02, 02:16:04,VALID,1010.69,VALID,0,VALID,95.1999,VALID,0,VALID,23.09,VALID,66,VALID,0,
2008-07-02, 02:17:04,VALID,1010.68,VALID,0,VALID,95.2228,VALID,0,VALID,23.1095,VALID,66,VALID,0,
2008-07-02, 02:18:04,VALID,1010.64,VALID,0,VALID,95.238,VALID,0,VALID,23.1095,VALID,66,VALID,0,
2008-07-02, 02:19:04,VALID,1010.64,VALID,0,VALID,95.2685,VALID,0,VALID,23.1095,VALID,66,VALID,0,
2008-07-02, 02:20:04,VALID,1010.64,VALID,0,VALID,95.2609,VALID,0,VALID,23.1095,VALID,66,VALID,0,
2008-07-02, 02:21:04,VALID,1010.63,VALID,0,VALID,95.2838,VALID,0,VALID,23.1095,VALID,66,VALID,0,
2008-07-02, 02:22:04,VALID,1010.65,VALID,0,VALID,95.3067,VALID,0,VALID,23.1095,VALID,65,VALID,0.172266,
2008-07-02, 02:23:04,VALID,1010.61,VALID,0,VALID,95.3219,VALID,0,VALID,23.1485,VALID,66,VALID,0.0265625,
2008-07-02, 02:24:04,VALID,1010.6,VALID,0,VALID,95.3524,VALID,0,VALID,23.1272,VALID,66,VALID,0,
2008-07-02, 02:25:04,VALID,1010.6,VALID,0,VALID,95.3448,VALID,0,VALID,23.1485,VALID,65,VALID,0,
2008-07-02, 02:26:04,VALID,1010.61,VALID,0,VALID,95.3524,VALID,0,VALID,23.1697,VALID,66,VALID,0,
2008-07-02, 02:27:04,VALID,1010.57,VALID,0,VALID,95.3448,VALID,0,VALID,23.1272,VALID,66,VALID,0,
2008-07-02, 02:28:04,VALID,1010.57,VALID,0,VALID,95.3448,VALID,0,VALID,23.1485,VALID,66,VALID,0,
2008-07-02, 02:29:04,VALID,1010.58,VALID,0,VALID,95.3524,VALID,0,VALID,23.1485,VALID,66,VALID,0,
2008-07-02, 02:30:04,VALID,1010.57,VALID,0,VALID,95.3448,VALID,0,VALID,23.129,VALID,66,VALID,0,
2008-07-02, 02:31:04,VALID,1010.57,VALID,0,VALID,95.36,VALID,0,VALID,23.129,VALID,66,VALID,0,
2008-07-02, 02:32:04,VALID,1010.55,VALID,0,VALID,95.3448,VALID,0,VALID,23.1485,VALID,66,VALID,0,
2008-07-02, 02:33:04,VALID,1010.55,VALID,0,VALID,95.3677,VALID,0.105969,VALID,23.1272,VALID,66,VALID,0,
2008-07-02, 02:34:04,VALID,1010.54,VALID,0,VALID,95.36,VALID,0,VALID,23.1485,VALID,66,VALID,0,
2008-07-02, 02:35:04,VALID,1010.52,VALID,0,VALID,95.3448,VALID,0,VALID,23.1485,VALID,66,VALID,0,
2008-07-02, 02:36:04,VALID,1010.48,VALID,0,VALID,95.3524,VALID,0,VALID,23.1485,VALID,66,VALID,0,
2008-07-02, 02:37:04,VALID,1010.47,VALID,0,VALID,95.36,VALID,0,VALID,23.1485,VALID,66,VALID,0,
2008-07-02, 02:38:04,VALID,1010.48,VALID,0,VALID,95.3753,VALID,0,VALID,23.1679,VALID,66,VALID,0.138672,
2008-07-02, 02:39:04,VALID,1010.47,VALID,0,VALID,95.3677,VALID,0,VALID,23.1679,VALID,66,VALID,0.0492188,
2008-07-02, 02:40:04,VALID,1010.45,VALID,0,VALID,95.3829,VALID,0,VALID,23.1874,VALID,66,VALID,0.096875,
2008-07-02, 02:41:04,VALID,1010.49,VALID,0,VALID,95.3753,VALID,0.105969,VALID,23.1874,VALID,66,VALID,0.361328,
2008-07-02, 02:42:04,VALID,1010.49,VALID,0,VALID,95.36,VALID,0,VALID,23.1679,VALID,103,VALID,0.403516,
2008-07-02, 02:43:04,VALID,1010.5,VALID,0,VALID,95.3143,VALID,0,VALID,23.1679,VALID,105,VALID,0.258594,
2008-07-02, 02:44:04,VALID,1010.52,VALID,0,VALID,95.3143,VALID,0,VALID,23.1679,VALID,105,VALID,0.139453,
2008-07-02, 02:45:04,VALID,1010.52,VALID,0,VALID,95.299,VALID,0,VALID,23.1679,VALID,105,VALID,0.111719,
2008-07-02, 02:46:04,VALID,1010.53,VALID,0,VALID,95.299,VALID,0,VALID,23.1697,VALID,122,VALID,0.506641,
2008-07-02, 02:47:04,VALID,1010.53,VALID,0,VALID,95.3067,VALID,0,VALID,23.1679,VALID,144,VALID,0.519922,
2008-07-02, 02:48:04,VALID,1010.52,VALID,0,VALID,95.2838,VALID,0,VALID,23.1485,VALID,149,VALID,0.426172,
2008-07-02, 02:49:04,VALID,1010.51,VALID,0,VALID,95.2914,VALID,0,VALID,23.1485,VALID,169,VALID,0.484766,
2008-07-02, 02:50:04,VALID,1010.49,VALID,0,VALID,95.3143,VALID,0,VALID,23.1679,VALID,179,VALID,0.701172,
2008-07-02, 02:51:04,VALID,1010.49,VALID,0,VALID,95.3219,VALID,0,VALID,23.1679,VALID,180,VALID,0.623438,
2008-07-02, 02:52:04,VALID,1010.48,VALID,0,VALID,95.299,VALID,0,VALID,23.1874,VALID,180,VALID,0.479297,
2008-07-02, 02:53:04,VALID,1010.49,VALID,0,VALID,95.3067,VALID,0,VALID,23.2069,VALID,180,VALID,0.376953,
2008-07-02, 02:54:04,VALID,1010.47,VALID,0,VALID,95.3219,VALID,0,VALID,23.2069,VALID,180,VALID,0.189063,
2008-07-02, 02:55:04,VALID,1010.48,VALID,0,VALID,95.3067,VALID,0,VALID,23.2069,VALID,180,VALID,0.24375,
2008-07-02, 02:56:04,VALID,1010.46,VALID,0,VALID,95.299,VALID,0,VALID,23.2069,VALID,180,VALID,0.0210938,
2008-07-02, 02:57:04,VALID,1010.47,VALID,0,VALID,95.299,VALID,0,VALID,23.2264,VALID,180,VALID,0,
2008-07-02, 02:58:04,VALID,1010.47,VALID,0,VALID,95.2685,VALID,0,VALID,23.2069,VALID,180,VALID,0,
2008-07-02, 02:59:04,VALID,1010.47,VALID,0,VALID,95.2685,VALID,0,VALID,23.1874,VALID,180,VALID,0.208984,
2008-07-02, 03:00:04,VALID,1010.5,VALID,0,VALID,95.2533,VALID,0,VALID,23.2069,VALID,180,VALID,0.0363281,
2008-07-02, 03:01:04,VALID,1010.49,VALID,0,VALID,95.2304,VALID,0.105969,VALID,23.2069,VALID,180,VALID,0.171094,
2008-07-02, 03:02:04,VALID,1010.48,VALID,0,VALID,95.2075,VALID,0,VALID,23.1874,VALID,180,VALID,0.287109,
2008-07-02, 03:03:04,VALID,1010.46,VALID,0,VALID,95.1923,VALID,0,VALID,23.1662,VALID,180,VALID,0.249609,
2008-07-02, 03:04:04,VALID,1010.47,VALID,0,VALID,95.1847,VALID,0,VALID,23.2069,VALID,180,VALID,0.0257812,
2008-07-02, 03:05:04,VALID,1010.47,VALID,0,VALID,95.1923,VALID,0,VALID,23.1662,VALID,180,VALID,0.162109,
2008-07-02, 03:06:04,VALID,1010.48,VALID,0,VALID,95.2228,VALID,0,VALID,23.1874,VALID,180,VALID,0,
2008-07-02, 03:07:04,VALID,1010.52,VALID,0,VALID,95.238,VALID,0,VALID,23.2069,VALID,166,VALID,0.324219,
2008-07-02, 03:08:04,VALID,1010.53,VALID,0,VALID,95.2075,VALID,0,VALID,23.1857,VALID,139,VALID,0.563281,
2008-07-02, 03:09:04,VALID,1010.53,VALID,0,VALID,95.2075,VALID,0,VALID,23.2069,VALID,134,VALID,0.370703,
2008-07-02, 03:10:04,VALID,1010.54,VALID,0,VALID,95.1999,VALID,0,VALID,23.2069,VALID,133,VALID,0.575,
2008-07-02, 03:11:04,VALID,1010.54,VALID,0,VALID,95.2075,VALID,0,VALID,23.1857,VALID,129,VALID,0.532031,
2008-07-02, 03:12:04,VALID,1010.53,VALID,0,VALID,95.1999,VALID,0,VALID,23.2264,VALID,130,VALID,0.375391,
2008-07-02, 03:13:04,VALID,1010.52,VALID,0,VALID,95.1542,VALID,0,VALID,23.2264,VALID,122,VALID,0.536719,
2008-07-02, 03:14:04,VALID,1010.53,VALID,0,VALID,95.1084,VALID,0,VALID,23.2264,VALID,111,VALID,0.6625,
2008-07-02, 03:15:04,VALID,1010.54,VALID,0,VALID,95.0474,VALID,0,VALID,23.2069,VALID,110,VALID,0.856641,
2008-07-02, 03:16:04,VALID,1010.55,VALID,0,VALID,94.9559,VALID,0,VALID,23.2069,VALID,105,VALID,0.825391,
2008-07-02, 03:17:04,VALID,1010.53,VALID,0,VALID,94.9025,VALID,0,VALID,23.2069,VALID,90,VALID,0.861719,
2008-07-02, 03:18:04,VALID,1010.55,VALID,0,VALID,94.8415,VALID,0,VALID,23.2476,VALID,112,VALID,0.694922,
2008-07-02, 03:19:04,VALID,1010.54,VALID,0,VALID,94.8034,VALID,0,VALID,23.2069,VALID,91,VALID,0.642187,
2008-07-02, 03:20:04,VALID,1010.55,VALID,0,VALID,94.7652,VALID,0,VALID,23.2476,VALID,89,VALID,0.502344,
2008-07-02, 03:21:04,VALID,1010.54,VALID,0,VALID,94.7424,VALID,0,VALID,23.2264,VALID,88,VALID,0.607031,
2008-07-02, 03:22:04,VALID,1010.57,VALID,0,VALID,94.7119,VALID,0,VALID,23.2282,VALID,95,VALID,0.539844,
2008-07-02, 03:23:04,VALID,1010.55,VALID,0,VALID,94.7347,VALID,0,VALID,23.2282,VALID,103,VALID,0.314063,
2008-07-02, 03:24:04,VALID,1010.52,VALID,0,VALID,94.6966,VALID,0,VALID,23.2282,VALID,86,VALID,0.286328,
2008-07-02, 03:25:04,VALID,1010.53,VALID,0,VALID,94.6432,VALID,0,VALID,23.2069,VALID,84,VALID,0.292188,
2008-07-02, 03:26:04,VALID,1010.5,VALID,0,VALID,94.6508,VALID,0,VALID,23.2087,VALID,72,VALID,0.235156,
2008-07-02, 03:27:04,VALID,1010.47,VALID,0,VALID,94.6356,VALID,0,VALID,23.2087,VALID,72,VALID,0.15625,
2008-07-02, 03:28:04,VALID,1010.46,VALID,0,VALID,94.628,VALID,0,VALID,23.1679,VALID,72,VALID,0,
2008-07-02, 03:29:04,VALID,1010.43,VALID,0,VALID,94.628,VALID,0,VALID,23.1679,VALID,72,VALID,0,
2008-07-02, 03:30:04,VALID,1010.4,VALID,0,VALID,94.628,VALID,0,VALID,23.1485,VALID,72,VALID,0,
2008-07-02, 03:31:04,VALID,1010.37,VALID,0,VALID,94.6737,VALID,0,VALID,23.1697,VALID,72,VALID,0.257813,
2008-07-02, 03:32:04,VALID,1010.36,VALID,0,VALID,94.7042,VALID,0,VALID,23.1485,VALID,72,VALID,0.281641,
2008-07-02, 03:33:04,VALID,1010.34,VALID,0,VALID,94.7119,VALID,0,VALID,23.1485,VALID,210,VALID,0.538672,
2008-07-02, 03:34:04,VALID,1010.32,VALID,0,VALID,94.7195,VALID,0,VALID,23.1697,VALID,214,VALID,0.472266,
2008-07-02, 03:35:04,VALID,1010.3,VALID,0,VALID,94.689,VALID,0,VALID,23.1679,VALID,216,VALID,0.575,
2008-07-02, 03:36:04,VALID,1010.28,VALID,0,VALID,94.628,VALID,0,VALID,23.1679,VALID,216,VALID,0.560547,
2008-07-02, 03:37:04,VALID,1010.27,VALID,0,VALID,94.567,VALID,0,VALID,23.1485,VALID,216,VALID,0.276953,
2008-07-02, 03:38:04,VALID,1010.28,VALID,0,VALID,94.5517,VALID,0,VALID,23.1679,VALID,216,VALID,0.230469,
2008-07-02, 03:39:04,VALID,1010.27,VALID,0,VALID,94.5746,VALID,0,VALID,23.1892,VALID,216,VALID,0.222656,
2008-07-02, 03:40:04,VALID,1010.27,VALID,0,VALID,94.5746,VALID,0,VALID,23.1892,VALID,216,VALID,0.151172,
2008-07-02, 03:41:04,VALID,1010.25,VALID,0,VALID,94.5593,VALID,0,VALID,23.1485,VALID,216,VALID,0.129688,
2008-07-02, 03:42:04,VALID,1010.27,VALID,0,VALID,94.5822,VALID,0,VALID,23.1697,VALID,216,VALID,0.154297,
2008-07-02, 03:43:04,VALID,1010.26,VALID,0,VALID,94.6127,VALID,0,VALID,23.1485,VALID,216,VALID,0.276172,
2008-07-02, 03:44:04,VALID,1010.3,VALID,0,VALID,94.6127,VALID,0,VALID,23.129,VALID,206,VALID,0.350781,
2008-07-02, 03:45:04,VALID,1010.29,VALID,0,VALID,94.6737,VALID,0,VALID,23.1485,VALID,155,VALID,0.312891,
2008-07-02, 03:46:04,VALID,1010.29,VALID,0,VALID,94.6737,VALID,0,VALID,23.129,VALID,155,VALID,0.195313,